RYR7 GMTT-LPPR

Flight info

Callsign RYR7
Flight time 1h 5m
Altitude 32000
Route NOLRO DCT ADKIM Z53 VJF N10 SVL M744 ROSAL DCT LASIB DCT ABLEG
Aircraft B738/M-SDE2E3FGHIRWXY/LB1

Departure

Time 2026-04-16 13:37
Airport Tangier Ibn Battuta Airport (GMTT)

Arrival

Time 2026-04-16 14:43
Airport Francisco de Sá Carneiro Airport (LPPR)
Time Latitude Longitude Altitude Speed Heading
2026-04-16 13:13 35.72527 -5.91193 59 ft 0 kts 355°
2026-04-16 13:27 35.72512 -5.91191 55 ft 4 kts 351°
2026-04-16 13:27 35.72486 -5.91185 53 ft 4 kts 340°
2026-04-16 13:28 35.72462 -5.91170 52 ft 4 kts 316°
2026-04-16 13:28 35.72450 -5.91146 57 ft 2 kts 266°
2026-04-16 13:28 35.72450 -5.91144 57 ft 1 kts 265°
2026-04-16 13:30 35.72449 -5.91159 55 ft 4 kts 266°
2026-04-16 13:30 35.72446 -5.91223 59 ft 11 kts 266°
2026-04-16 13:31 35.72438 -5.91348 55 ft 18 kts 265°
2026-04-16 13:31 35.72426 -5.91523 53 ft 22 kts 269°
2026-04-16 13:31 35.72493 -5.91674 58 ft 22 kts 336°
2026-04-16 13:31 35.72639 -5.91698 59 ft 21 kts 355°
2026-04-16 13:32 35.72782 -5.91711 59 ft 20 kts 356°
2026-04-16 13:32 35.72910 -5.91724 59 ft 14 kts 347°
2026-04-16 13:32 35.72955 -5.91822 59 ft 14 kts 277°
2026-04-16 13:32 35.72956 -5.91835 58 ft 14 kts 277°
2026-04-16 13:33 35.72962 -5.91885 53 ft 14 kts 277°
2026-04-16 13:33 35.72972 -5.91998 52 ft 13 kts 276°
2026-04-16 13:33 35.72982 -5.92105 58 ft 13 kts 277°
2026-04-16 13:33 35.72994 -5.92225 58 ft 15 kts 276°
2026-04-16 13:34 35.73004 -5.92367 52 ft 18 kts 277°
2026-04-16 13:34 35.73021 -5.92527 59 ft 20 kts 277°
2026-04-16 13:34 35.73038 -5.92707 59 ft 22 kts 276°
2026-04-16 13:34 35.73057 -5.92906 59 ft 24 kts 276°
2026-04-16 13:35 35.73075 -5.93119 53 ft 26 kts 275°
2026-04-16 13:35 35.73095 -5.93345 59 ft 28 kts 278°
2026-04-16 13:35 35.73120 -5.93588 56 ft 29 kts 276°
2026-04-16 13:35 35.73144 -5.93842 59 ft 31 kts 277°
2026-04-16 13:36 35.73165 -5.93997 56 ft 16 kts 296°
2026-04-16 13:36 35.73259 -5.94053 58 ft 16 kts
2026-04-16 13:36 35.73332 -5.93967 61 ft 15 kts 77°
2026-04-16 13:36 35.73325 -5.93842 61 ft 16 kts 97°
2026-04-16 13:37 35.73294 -5.93454 59 ft 77 kts 95°
2026-04-16 13:37 35.73212 -5.92570 54 ft 128 kts 97°
2026-04-16 13:37 35.73071 -5.91326 218 ft 152 kts 94°
2026-04-16 13:37 35.72835 -5.90079 726 ft 152 kts 100°
2026-04-16 13:38 35.72659 -5.88819 1397 ft 146 kts 93°
2026-04-16 13:38 35.72614 -5.87533 1800 ft 156 kts 97°
2026-04-16 13:38 35.72521 -5.86097 2015 ft 182 kts 97°
2026-04-16 13:38 35.72400 -5.84424 2220 ft 206 kts 96°
2026-04-16 13:39 35.72249 -5.82639 2647 ft 216 kts 98°
2026-04-16 13:39 35.72106 -5.80754 3189 ft 223 kts 98°
2026-04-16 13:39 35.71723 -5.78888 3810 ft 230 kts 123°
2026-04-16 13:39 35.70618 -5.77493 4592 ft 228 kts 145°
2026-04-16 13:40 35.69143 -5.76745 5299 ft 234 kts 169°
2026-04-16 13:40 35.67516 -5.76849 5913 ft 242 kts 196°
2026-04-16 13:40 35.66045 -5.77892 6548 ft 250 kts 224°
2026-04-16 13:40 35.65139 -5.79731 7180 ft 256 kts 255°
2026-04-16 13:41 35.65074 -5.81906 7777 ft 260 kts 285°
2026-04-16 13:41 35.65747 -5.83942 8668 ft 253 kts 298°
2026-04-16 13:41 35.66581 -5.85824 9453 ft 253 kts 301°
2026-04-16 13:41 35.67458 -5.87720 10233 ft 254 kts 301°
2026-04-16 13:42 35.68345 -5.89614 10933 ft 257 kts 301°
2026-04-16 13:42 35.69241 -5.91521 11655 ft 259 kts 301°
2026-04-16 13:42 35.70154 -5.93473 12326 ft 264 kts 301°
2026-04-16 13:42 35.71078 -5.95449 13066 ft 267 kts 301°
2026-04-16 13:43 35.71999 -5.97420 13854 ft 268 kts 301°
2026-04-16 13:43 35.72939 -5.99436 14503 ft 273 kts 301°
2026-04-16 13:43 35.73896 -6.01453 15145 ft 277 kts 305°
2026-04-16 13:43 35.75300 -6.03058 15802 ft 278 kts 334°
2026-04-16 13:44 35.77190 -6.03726 16197 ft 293 kts 358°
2026-04-16 13:44 35.79297 -6.03537 16388 ft 315 kts
2026-04-16 13:44 35.81530 -6.03168 16550 ft 338 kts
2026-04-16 13:44 35.83949 -6.02765 16714 ft 359 kts
2026-04-16 13:45 35.86505 -6.02388 16915 ft 379 kts
2026-04-16 13:45 35.89173 -6.02039 17312 ft 390 kts
2026-04-16 13:45 35.91869 -6.01701 17924 ft 395 kts
2026-04-16 13:45 35.94615 -6.01356 18575 ft 398 kts
2026-04-16 13:46 35.97393 -6.01004 19173 ft 401 kts
2026-04-16 13:46 36.00149 -6.00650 19765 ft 403 kts
2026-04-16 13:46 36.02954 -6.00287 20370 ft 406 kts
2026-04-16 13:46 36.05793 -5.99919 20945 ft 409 kts
2026-04-16 13:47 36.08607 -5.99552 21507 ft 412 kts
2026-04-16 13:47 36.11478 -5.99177 22051 ft 415 kts
2026-04-16 13:47 36.14366 -5.98800 22572 ft 418 kts
2026-04-16 13:47 36.17272 -5.98421 23126 ft 421 kts
2026-04-16 13:48 36.20172 -5.98042 23656 ft 423 kts
2026-04-16 13:48 36.23127 -5.97656 24112 ft 426 kts
2026-04-16 13:48 36.26084 -5.97239 24497 ft 430 kts
2026-04-16 13:48 36.29029 -5.96740 24924 ft 432 kts
2026-04-16 13:49 36.32021 -5.96195 25333 ft 435 kts
2026-04-16 13:49 36.35031 -5.95637 25742 ft 438 kts
2026-04-16 13:49 36.38068 -5.95076 26137 ft 441 kts
2026-04-16 13:49 36.41077 -5.94527 26525 ft 443 kts
2026-04-16 13:50 36.44146 -5.93974 26904 ft 446 kts
2026-04-16 13:50 36.47241 -5.93420 27275 ft 449 kts
2026-04-16 13:50 36.50346 -5.92866 27642 ft 451 kts
2026-04-16 13:50 36.53473 -5.92310 27998 ft 454 kts
2026-04-16 13:51 36.56572 -5.91759 28340 ft 457 kts
2026-04-16 13:51 36.59735 -5.91195 28681 ft 459 kts
2026-04-16 13:51 36.62913 -5.90628 29015 ft 462 kts
2026-04-16 13:51 36.66118 -5.90056 29336 ft 464 kts
2026-04-16 13:52 36.69291 -5.89489 29653 ft 466 kts
2026-04-16 13:52 36.72527 -5.88911 29969 ft 469 kts
2026-04-16 13:52 36.75760 -5.88334 30353 ft 468 kts
2026-04-16 13:52 36.78953 -5.87761 30779 ft 466 kts
2026-04-16 13:53 36.82165 -5.87185 31151 ft 465 kts
2026-04-16 13:53 36.85384 -5.86607 31475 ft 466 kts
2026-04-16 13:53 36.88566 -5.86035 31858 ft 465 kts
2026-04-16 13:53 36.91766 -5.85459 32259 ft 463 kts
2026-04-16 13:54 36.94960 -5.84884 32619 ft 463 kts
2026-04-16 13:54 36.98157 -5.84308 32958 ft 463 kts
2026-04-16 13:54 37.01351 -5.83732 33324 ft 462 kts
2026-04-16 13:54 37.04493 -5.83165 33680 ft 461 kts
2026-04-16 13:55 37.07683 -5.82589 34033 ft 461 kts
2026-04-16 13:55 37.10882 -5.82011 34337 ft 460 kts
2026-04-16 13:55 37.14014 -5.81445 34668 ft 459 kts
2026-04-16 13:55 37.17184 -5.80871 34963 ft 458 kts
2026-04-16 13:56 37.20341 -5.80299 35213 ft 459 kts
2026-04-16 13:56 37.23503 -5.79726 35469 ft 459 kts
2026-04-16 13:56 37.26647 -5.79155 35753 ft 458 kts
2026-04-16 13:56 37.29807 -5.78581 36033 ft 457 kts
2026-04-16 13:57 37.32942 -5.78011 36128 ft 461 kts
2026-04-16 13:57 37.39306 -5.77721 36128 ft 454 kts 343°
2026-04-16 13:58 37.44671 -5.81467 36139 ft 441 kts 314°
2026-04-16 13:58 37.46614 -5.84424 36133 ft 437 kts 300°
2026-04-16 13:58 37.49603 -5.91041 36135 ft 436 kts 297°
2026-04-16 13:59 37.52522 -5.97751 36126 ft 436 kts 297°
2026-04-16 13:59 37.55485 -6.04425 36133 ft 436 kts 298°
2026-04-16 14:00 37.58472 -6.11085 36135 ft 437 kts 298°
2026-04-16 14:00 37.61452 -6.17736 36139 ft 438 kts 298°
2026-04-16 14:01 37.64454 -6.24453 36144 ft 438 kts 298°
2026-04-16 14:01 37.67445 -6.31160 36145 ft 439 kts 298°
2026-04-16 14:02 37.70426 -6.37867 36146 ft 440 kts 298°
2026-04-16 14:02 37.73408 -6.44590 36149 ft 440 kts 298°
2026-04-16 14:03 37.76420 -6.51394 36142 ft 441 kts 297°
2026-04-16 14:03 37.79406 -6.58153 36144 ft 442 kts 297°
2026-04-16 14:04 37.82392 -6.64929 36144 ft 442 kts 297°
2026-04-16 14:04 37.85372 -6.71704 36144 ft 442 kts 297°
2026-04-16 14:05 37.88368 -6.78529 36139 ft 442 kts 297°
2026-04-16 14:05 37.91332 -6.85299 36148 ft 441 kts 297°
2026-04-16 14:06 37.94298 -6.92084 36148 ft 441 kts 297°
2026-04-16 14:06 37.97262 -6.98881 36145 ft 441 kts 297°
2026-04-16 14:07 38.00225 -7.05688 36143 ft 440 kts 297°
2026-04-16 14:07 38.02571 -7.12824 36145 ft 437 kts 282°
2026-04-16 14:08 38.04532 -7.19988 36158 ft 439 kts 306°
2026-04-16 14:08 38.06653 -7.22793 36145 ft 443 kts 320°
2026-04-16 14:08 38.09294 -7.24825 36142 ft 447 kts 336°
2026-04-16 14:09 38.15222 -7.27453 36142 ft 450 kts 340°
2026-04-16 14:09 38.21156 -7.29909 36139 ft 452 kts 340°
2026-04-16 14:10 38.27172 -7.32455 36150 ft 454 kts 339°
2026-04-16 14:10 38.32134 -7.34598 36150 ft 455 kts 339°
2026-04-16 14:11 38.39148 -7.37657 36145 ft 457 kts 339°
2026-04-16 14:11 38.45145 -7.40280 36155 ft 457 kts 339°
2026-04-16 14:12 38.50175 -7.42482 36147 ft 458 kts 339°
2026-04-16 14:12 38.56195 -7.45122 36148 ft 456 kts 339°
2026-04-16 14:13 38.62179 -7.47750 36154 ft 455 kts 339°
2026-04-16 14:13 38.68180 -7.50390 36153 ft 454 kts 338°
2026-04-16 14:14 38.74118 -7.53008 36147 ft 453 kts 338°
2026-04-16 14:14 38.80056 -7.55742 36155 ft 451 kts 337°
2026-04-16 14:15 38.85912 -7.58503 36150 ft 450 kts 337°
2026-04-16 14:15 38.91805 -7.61278 36158 ft 449 kts 337°
2026-04-16 14:16 38.97632 -7.64015 36166 ft 449 kts 337°
2026-04-16 14:16 39.03514 -7.66777 36165 ft 449 kts 337°
2026-04-16 14:17 39.09404 -7.69546 36167 ft 450 kts 337°
2026-04-16 14:17 39.15270 -7.72311 35945 ft 454 kts 337°
2026-04-16 14:18 39.18252 -7.73719 35374 ft 457 kts 337°
2026-04-16 14:18 39.21241 -7.75130 34756 ft 456 kts 337°
2026-04-16 14:18 39.24232 -7.76544 34112 ft 457 kts 338°
2026-04-16 14:18 39.27196 -7.77946 33370 ft 458 kts 338°
2026-04-16 14:19 39.30208 -7.79372 32641 ft 459 kts 338°
2026-04-16 14:19 39.33204 -7.80791 31984 ft 459 kts 337°
2026-04-16 14:19 39.36188 -7.82205 31495 ft 454 kts 337°
2026-04-16 14:19 39.39148 -7.83610 30999 ft 450 kts 337°
2026-04-16 14:20 39.42038 -7.84982 30514 ft 446 kts 337°
2026-04-16 14:20 39.44939 -7.86361 29990 ft 443 kts 337°
2026-04-16 14:20 39.47826 -7.87736 29434 ft 439 kts 337°
2026-04-16 14:20 39.50691 -7.89100 28931 ft 434 kts 337°
2026-04-16 14:21 39.53489 -7.90435 28430 ft 429 kts 337°
2026-04-16 14:21 39.56285 -7.91770 27933 ft 425 kts 337°
2026-04-16 14:21 39.59024 -7.93078 27442 ft 422 kts 337°
2026-04-16 14:21 39.61776 -7.94395 26946 ft 418 kts 337°
2026-04-16 14:22 39.64492 -7.95694 26467 ft 414 kts 337°
2026-04-16 14:22 39.67199 -7.96991 25984 ft 411 kts 337°
2026-04-16 14:22 39.69847 -7.98260 25525 ft 408 kts 337°
2026-04-16 14:22 39.72519 -7.99542 25054 ft 405 kts 337°
2026-04-16 14:23 39.75128 -8.00796 24592 ft 403 kts 337°
2026-04-16 14:23 39.77760 -8.02060 24113 ft 401 kts 337°
2026-04-16 14:23 39.80377 -8.03319 23627 ft 399 kts 337°
2026-04-16 14:23 39.82971 -8.04569 23104 ft 396 kts 337°
2026-04-16 14:24 39.85524 -8.05798 22607 ft 393 kts 337°
2026-04-16 14:24 39.88080 -8.07029 22137 ft 389 kts 337°
2026-04-16 14:24 39.90630 -8.08260 21670 ft 386 kts 337°
2026-04-16 14:24 39.93108 -8.09456 21225 ft 383 kts 337°
2026-04-16 14:25 39.95601 -8.10661 20774 ft 380 kts 337°
2026-04-16 14:25 39.98084 -8.11861 20332 ft 377 kts 336°
2026-04-16 14:25 40.00512 -8.13036 19890 ft 375 kts 336°
2026-04-16 14:25 40.02960 -8.14223 19442 ft 373 kts 336°
2026-04-16 14:26 40.05392 -8.15401 19000 ft 371 kts 336°
2026-04-16 14:26 40.07775 -8.16558 18573 ft 368 kts 336°
2026-04-16 14:26 40.10194 -8.17733 18016 ft 367 kts 336°
2026-04-16 14:26 40.12557 -8.18880 17588 ft 364 kts 336°
2026-04-16 14:27 40.14922 -8.20028 17159 ft 361 kts 337°
2026-04-16 14:27 40.17288 -8.21180 16704 ft 359 kts 337°
2026-04-16 14:27 40.19605 -8.22309 16275 ft 356 kts 337°
2026-04-16 14:27 40.21934 -8.23444 15855 ft 355 kts 337°
2026-04-16 14:28 40.24250 -8.24574 15429 ft 354 kts 337°
2026-04-16 14:28 40.26526 -8.25686 14998 ft 353 kts 337°
2026-04-16 14:28 40.28833 -8.26813 14574 ft 352 kts 337°
2026-04-16 14:28 40.31130 -8.27936 14130 ft 352 kts 337°
2026-04-16 14:29 40.33427 -8.29058 13641 ft 352 kts 337°
2026-04-16 14:29 40.35719 -8.30179 13195 ft 349 kts 338°
2026-04-16 14:29 40.37965 -8.31280 12780 ft 347 kts 337°
2026-04-16 14:29 40.40236 -8.32393 12336 ft 346 kts 337°
2026-04-16 14:30 40.42486 -8.33496 11923 ft 344 kts 337°
2026-04-16 14:30 40.44712 -8.34588 11518 ft 342 kts 337°
2026-04-16 14:30 40.46947 -8.35688 11092 ft 341 kts 337°
2026-04-16 14:30 40.49130 -8.36761 10901 ft 332 kts 336°
2026-04-16 14:31 40.51276 -8.37815 10744 ft 324 kts 337°
2026-04-16 14:31 40.53364 -8.38840 10596 ft 315 kts 338°
2026-04-16 14:31 40.55366 -8.39825 10465 ft 307 kts 338°
2026-04-16 14:31 40.57344 -8.40799 10327 ft 299 kts 336°
2026-04-16 14:32 40.59273 -8.41750 10194 ft 292 kts 338°
2026-04-16 14:32 40.61170 -8.42689 9896 ft 291 kts 337°
2026-04-16 14:32 40.63074 -8.43630 9604 ft 290 kts 336°
2026-04-16 14:32 40.64936 -8.44550 9304 ft 289 kts 336°
2026-04-16 14:33 40.66823 -8.45482 9015 ft 287 kts 337°
2026-04-16 14:33 40.68698 -8.46408 8722 ft 286 kts 336°
2026-04-16 14:33 40.70534 -8.47318 8432 ft 283 kts 337°
2026-04-16 14:33 40.72381 -8.48233 8155 ft 282 kts 337°
2026-04-16 14:34 40.74215 -8.49142 7882 ft 281 kts 336°
2026-04-16 14:34 40.76047 -8.50051 7591 ft 280 kts 337°
2026-04-16 14:34 40.77867 -8.50956 7311 ft 279 kts 337°
2026-04-16 14:34 40.79658 -8.51846 7048 ft 278 kts 337°
2026-04-16 14:35 40.81475 -8.52747 6751 ft 279 kts 337°
2026-04-16 14:35 40.83300 -8.53655 6454 ft 279 kts 337°
2026-04-16 14:35 40.85095 -8.54546 6157 ft 278 kts 336°
2026-04-16 14:35 40.86906 -8.55448 5867 ft 274 kts 337°
2026-04-16 14:36 40.88673 -8.56326 5570 ft 267 kts 336°
2026-04-16 14:36 40.90367 -8.57170 5362 ft 257 kts 336°
2026-04-16 14:36 40.92006 -8.57985 5218 ft 247 kts 337°
2026-04-16 14:36 40.93601 -8.58780 5011 ft 243 kts 336°
2026-04-16 14:37 40.95172 -8.59565 4821 ft 239 kts 337°
2026-04-16 14:37 40.96709 -8.60333 4609 ft 237 kts 336°
2026-04-16 14:37 40.98250 -8.61100 4400 ft 234 kts 337°
2026-04-16 14:37 40.99815 -8.61667 4235 ft 231 kts 348°
2026-04-16 14:38 41.01388 -8.62050 4063 ft 228 kts 348°
2026-04-16 14:38 41.02943 -8.62433 3886 ft 225 kts 348°
2026-04-16 14:38 41.04465 -8.62824 3654 ft 226 kts 348°
2026-04-16 14:38 41.06009 -8.63227 3479 ft 225 kts 348°
2026-04-16 14:39 41.07551 -8.63623 3255 ft 224 kts 348°
2026-04-16 14:39 41.09066 -8.64015 3033 ft 223 kts 348°
2026-04-16 14:39 41.10604 -8.64412 2745 ft 226 kts 347°
2026-04-16 14:39 41.12154 -8.64815 2480 ft 224 kts 347°
2026-04-16 14:40 41.13638 -8.65201 2175 ft 214 kts 347°
2026-04-16 14:40 41.15045 -8.65568 2028 ft 195 kts 347°
2026-04-16 14:40 41.16313 -8.65898 1984 ft 177 kts 347°
2026-04-16 14:40 41.17522 -8.66213 1930 ft 177 kts 348°
2026-04-16 14:41 41.18777 -8.66521 1448 ft 179 kts 347°
2026-04-16 14:41 41.19935 -8.66794 1153 ft 165 kts 348°
2026-04-16 14:41 41.21030 -8.67108 805 ft 154 kts 345°
2026-04-16 14:41 41.22020 -8.67377 579 ft 141 kts 346°
2026-04-16 14:42 41.22956 -8.67629 372 ft 133 kts 345°
2026-04-16 14:42 41.23816 -8.67846 233 ft 117 kts 345°
2026-04-16 14:42 41.24554 -8.68072 205 ft 101 kts 350°
2026-04-16 14:42 41.25204 -8.68234 182 ft 89 kts 349°
2026-04-16 14:43 41.25515 -8.68319 174 ft 13 kts 347°
2026-04-16 14:43 41.25597 -8.68270 171 ft 15 kts 63°
2026-04-16 14:43 41.25608 -8.68150 169 ft 10 kts 91°
2026-04-16 14:43 41.25566 -8.68092 171 ft 9 kts 168°
2026-04-16 14:44 41.25502 -8.68078 173 ft 9 kts 166°
2026-04-16 14:44 41.25441 -8.68061 175 ft 9 kts 169°
2026-04-16 14:44 41.25367 -8.68045 178 ft 12 kts 173°
2026-04-16 14:44 41.25275 -8.68018 181 ft 15 kts 168°
2026-04-16 14:45 41.25167 -8.67989 186 ft 16 kts 169°
2026-04-16 14:45 41.25055 -8.67958 194 ft 17 kts 168°
2026-04-16 14:45 41.24928 -8.67921 198 ft 19 kts 166°
2026-04-16 14:45 41.24807 -8.67858 209 ft 19 kts 153°
2026-04-16 14:46 41.24688 -8.67805 213 ft 18 kts 172°
2026-04-16 14:46 41.24568 -8.67777 215 ft 17 kts 171°
2026-04-16 14:46 41.24451 -8.67746 222 ft 17 kts 169°
2026-04-16 14:46 41.24342 -8.67713 228 ft 16 kts 164°
2026-04-16 14:47 41.24260 -8.67623 235 ft 15 kts 127°
2026-04-16 14:47 41.24163 -8.67564 237 ft 17 kts 170°
2026-04-16 14:47 41.24034 -8.67531 237 ft 21 kts 170°
2026-04-16 14:47 41.23878 -8.67488 238 ft 25 kts 168°
2026-04-16 14:48 41.23699 -8.67443 237 ft 27 kts 168°
2026-04-16 14:48 41.23555 -8.67405 238 ft 16 kts 167°
2026-04-16 14:48 41.23455 -8.67379 239 ft 14 kts 169°
2026-04-16 14:48 41.23378 -8.67325 240 ft 13 kts 118°
2026-04-16 14:49 41.23370 -8.67297 241 ft 0 kts 112°
2026-04-16 14:49 41.23366 -8.67282 242 ft 3 kts 97°
2026-04-16 14:49 41.23373 -8.67259 243 ft 3 kts 55°
2026-04-16 14:49 41.23385 -8.67242 243 ft 3 kts 49°
2026-04-16 14:50 41.23397 -8.67223 244 ft 3 kts 50°
2026-04-16 14:50 41.23412 -8.67201 244 ft 1 kts 48°
2026-04-16 14:50 41.23416 -8.67194 244 ft 0 kts 47°
2026-04-16 15:02 41.23415 -8.67194 244 ft 0 kts 49°
2026-04-16 15:16 41.23437 -8.67268 244 ft 0 kts 59°
2026-04-16 15:16 41.23415 -8.67194 244 ft 0 kts 49°